Regional Weather Roundup
Issued by NWS Mt. Holly, NJ

Home | Current Version | Previous Version | Text Only | Print | Product List | Glossary On
Versions: 1 2 3 4 5 6 7 8 9 10 11 12 13 14 15 16 17 18 19 20 21 22 23 24 25 26 27 28 29 30 31 32 33 34 35 36 37 38 39 40 41 42 43 44 45 46 47 48 49 50
000
ASUS41 KPHI 060512
RWRPHI

REGIONAL WEATHER ROUNDUP
NATIONAL WEATHER SERVICE MOUNT HOLLY NJ
100 AM EDT MON JUL 06 2015

NOTE:  "FAIR" INDICATES FEW OR NO CLOUDS BELOW 12,000 FEET WITH NO
SIGNIFICANT WEATHER AND/OR OBSTRUCTIONS TO VISIBILITY.

 * = STATION DOES NOT REPORT PRECIPITATION (E.G. RAIN, SNOW, ETC.)
        OR FOG.

NJZ015>026-060600-
SOUTHERN NEW JERSEY

CITY           SKY/WX    TMP DP  RH WIND       PRES   REMARKS
POMONA         CLOUDY    72  68  87 CALM      30.15F
RIO GRANDE*    CLOUDY    73  68  83 SE5       30.15F
MILLVILLE      CLOUDY    70  68  93 CALM      30.14F
WRIGHTSTOWN    CLOUDY    69  68  97 S3        30.13S
MOUNT HOLLY    CLOUDY    70  66  87 CALM      30.15S
TRENTON        CLOUDY    72  67  84 S6        30.15R

$$
NJZ001>014-060600-
NORTHERN NEW JERSEY

CITY           SKY/WX    TMP DP  RH WIND       PRES   REMARKS
SUSSEX         PTCLDY    63  60  90 CALM      30.17R FOG
ANDOVER*         N/A     63  62  97 CALM      30.17S
MORRISTOWN     MOCLDY    64  61  88 CALM      30.15F
NEWARK         MOCLDY    73  67  81 S5        30.15R
TETERBORO      PTCLDY    71  64  78 CALM      30.14R
CALDWELL       PTCLDY    68  62  81 CALM      30.16R
SOMERVILLE     CLOUDY    65  62  90 CALM      30.13S
ALLAIRE*       MOCLDY    70  63  78 SW3       30.16S
TOMS RIVER*    CLOUDY    68  64  88 CALM      30.16S

$$
PAZ043-044-047-054-055-060>062-066>071-060600-
EASTERN PENNSYLVANIA

CITY           SKY/WX    TMP DP  RH WIND       PRES   REMARKS
PHILADELPHIA   CLOUDY    73  67  81 S6        30.15F
NORTH PHILA    CLOUDY    75  65  70 VRB3      30.16S
BLUE BELL      CLOUDY    72  68  88 CALM      30.15S
DOYLESTOWN     CLOUDY    67  65  93 CALM      30.15S
QUAKERTOWN*    CLOUDY    66  64  94 CALM      30.17S
POTTSTOWN      CLOUDY    70  67  90 CALM      30.17S
LANCASTER      CLOUDY    67  66  97 SE3       30.14F FOG
COATESVILLE    CLOUDY    68  68 100 CALM      30.17S
READING        CLOUDY    69  65  86 N3        30.14S
ALLENTOWN      CLOUDY    67  64  90 NW3       30.16R
MOUNT POCONO   MOCLDY    59  56  89 CALM      30.21S
HAZLETON         N/A     61  61 100 CALM      30.23S FOG
WILKES BARRE   MOCLDY    65  57  75 E6        30.17S

$$
DEZALL-MDZ008-012-015-019-020-060600-
DELAWARE AND EASTERN MARYLAND

CITY           SKY/WX    TMP DP  RH WIND       PRES   REMARKS
WILMINGTON     CLOUDY    73  70  90 S7        30.15F
DOVER          CLOUDY    72  72 100 SE3       30.12F
GEORGETOWN     CLOUDY    72  70  93 CALM      30.14F
EASTON         CLOUDY   N/A N/A N/A CALM      30.16S
PATUXENT       CLOUDY    75  71  87 S6        30.11F
OCEAN CITY     CLOUDY    74  71  91 SE3       30.13F
WALLOPS ISLAND LGT RAIN  75  74  96 E8        30.12F
CAMBRIDGE      CLOUDY    73  70  88 SE5       30.12F
SALISBURY      CLOUDY    71  70  96 SE3       30.13F

$$
PAZ001-021-NYZ056-072-MDZ011-DCZ001-060600-
OTHER NEARBY LOCATIONS

CITY           SKY/WX    TMP DP  RH WIND       PRES   REMARKS
HARRISBURG     CLOUDY    70  67  90 CALM      30.13S
STATE COLLEGE  CLOUDY    65  62  90 CALM      30.17R
WILLIAMSPORT   MOCLDY    63  60  90 CALM      30.15S
BINGHAMTON     PTCLDY    63  54  72 S5        30.19S
NEW YORK CITY  PTCLDY    74  64  71 CALM      30.17S
BALTIMORE      CLOUDY    74  70  87 CALM      30.12F
WASHINGTON DC  CLOUDY    77  72  84 S3        30.12F

$$


USA.gov is the U.S. government's official web portal to all federal, state and local government web resources and services.